Location: Barrio Las Umbrías
(40.4173°N, 4.8685°W)
Time: 14:08:29
(UTC+00:00)

SPOT 3 Rocket - Pass Details

Date: 17 August 2022
Orbit: 778 x 795 km, 98.7° (Epoch: 27 September)

Event Time Altitude Azimuth Distance (km) Brightness Sun altitude
Exits shadow 21:26:15 53° 146° (SSE) 969 3.6 -22.5°
Maximum altitude 21:27:29 77° 74° (ENE) 815 3.5 -22.7°
Drops below altitude 10° 21:32:41 10° 350° (N) 2,359 6.7 -23.4°
Sets 21:35:01 0° 349° (NNW) 3,289 7.6 -23.7°
